[[{"header":{"parameterUnit":"m.s-1","parameterCategory":2,"la1":30.2991,"la2":30.254,"lo1":-89.0895,"lo2":-89.0444,"dy":0.0017,"dx":0.0017,"nx":28,"ny":28,"refTime":"2023-07-20T21:00:00:Z","depth":"0","parameterNumber":2,"parameterNumberName":"U-component_of_CURRENTS"},"data":[0,0,0,0,0,0,0,0,0,0,0,0,0,0,0,0,0,0,0,0,0,0,0,0,0,0,0,0,0,0,0,0,0,0,0,0,0,0,0,0,0,0,0,0,0,0,0,0,0,0,0,0,0,0,0,0,0,0,0.3856,0.3855,0,0.388,0.3882,0.3883,0.3912,0.3911,0.391,0.3909,0.3993,0.3996,0.3999,0,0,0,0,0,0,0,0,0,0,0,0,0,0.3931,0.393,0.3856,0.3855,0.3854,0.388,0.3882,0.3883,0.3912,0.3911,0.391,0.3909,0.3992,0.3996,0.3999,0,0,0,0,0,0,0,0,0,0,0,0,0,0.3934,0.393,0.3856,0.3862,0.3861,0.388,0.3882,0.3884,0.3912,0.3911,0.391,0.3909,0.3991,0.3996,0.4,0.4051,0,0,0.4014,0.4015,0,0,0,0,0,0,0,0,0.3934,0.3933,0.3862,0.3861,0.3861,0.388,0.3938,0.3938,0.3912,0.3907,0.3909,0.3908,0.3953,0.3961,0.3986,0.4055,0.4059,0.4014,0.4017,0.4019,0.402,0,0,0,0,0,0,0,0.3933,0.3932,0.388,0.3861,0.386,0.3895,0.3895,0.394,0.3948,0.3908,0.3906,0.3888,0.3955,0.3982,0.3988,0.406,0.4014,0.4018,0.4021,0.4022,0.4188,0.4189,0,0,0,0,0,0,0.3899,0.3931,0.3878,0.3879,0.388,0.3893,0.3894,0.3886,0.3946,0.395,0.3889,0.3889,0.3975,0.3983,0.3991,0.4064,0.4019,0.4023,0.4025,0.4186,0.4188,0.419,0,0,0,0,0,0,0.3901,0.3895,0.3877,0.3895,0.3893,0.3891,0.3884,0.3887,0.3909,0.3929,0.3936,0.3905,0.3974,0.3985,0.4048,0.4067,0.4025,0.4029,0.4184,0.4187,0.4189,0.4204,0,0,0,0,0,0,0.3903,0.3896,0.3902,0.3892,0.389,0.3907,0.3884,0.3888,0.3893,0.3894,0.3946,0.3952,0.3974,0.4042,0.4053,0.4072,0.4032,0.4182,0.4185,0.4188,0.4201,0.4206,0.4211,0,0,0,0,0,0.3906,0.3928,0.3902,0.3896,0.3891,0.3907,0.3914,0.3916,0.3895,0.3929,0.3957,0.395,0.4069,0.4048,0.406,0.4081,0.418,0.4184,0.4188,0.4199,0.4205,0.4211,0,0,0,0,0,0,0.3955,0.3931,0.3903,0.3912,0.3907,0.3907,0.3935,0.3918,0.3967,0.3964,0.3983,0.3995,0.4062,0.4073,0.4048,0.4139,0.412,0.4126,0.4124,0.413,0.4135,0.4128,0.4036,0,0,0,0,0,0.3962,0.3988,0.3946,0.396,0.3953,0.394,0.3948,0.3938,0.3959,0.3978,0.4011,0.4045,0.4091,0.4109,0.4163,0.4211,0.424,0.423,0.4235,0.4239,0.4244,0.4294,0.4303,0.4203,0.4203,0.4202,0,0,0.3986,0.3973,0.3987,0.3975,0.3973,0.3979,0.3948,0.3959,0.3968,0.3981,0.4041,0.4078,0.4114,0.4178,0.4204,0.4182,0.4292,0.4244,0.4247,0.425,0.4299,0.4308,0.4317,0.4205,0.4205,0.4204,0,0,0.4041,0.4028,0.4058,0.4057,0.4036,0.4025,0.402,0.4018,0.4028,0.4076,0.4087,0.4133,0.4205,0.4231,0.4248,0.4313,0.4329,0.4324,0.4329,0.4378,0.4386,0.4393,0.4474,0.4488,0.431,0.431,0.431,0,0.407,0.4065,0.4072,0.4085,0.4063,0.4039,0.4031,0.4059,0.4084,0.4085,0.41,0.4203,0.423,0.4283,0.4303,0.4322,0.4363,0.4298,0.4383,0.439,0.4398,0.4478,0.4493,0.4311,0.4311,0.4311,0.4311,0,0.4125,0.4116,0.4135,0.4133,0.4134,0.4129,0.4116,0.4137,0.4131,0.414,0.4206,0.4267,0.4316,0.4332,0.4337,0.4396,0.4417,0.4394,0.4361,0.4408,0.4491,0.4507,0.4313,0.4312,0.4312,0.4312,0,0,0.4163,0.417,0.4166,0.4138,0.4133,0.4125,0.4151,0.4139,0.4137,0.4209,0.423,0.4319,0.4344,0.4368,0.4391,0.4424,0.4517,0.4425,0.4427,0.4495,0.4657,0.4553,0.4561,0.4505,0.4507,0.4509,0.4705,0,0.4174,0.419,0.4185,0.4168,0.4146,0.4128,0.4142,0.4146,0.4167,0.4209,0.4269,0.433,0.4361,0.4386,0.4434,0.4502,0.4556,0.4469,0.461,0.4615,0.4506,0.4573,0.4286,0.4424,0.472,0.4723,0.4725,0,0.419,0.4179,0.4168,0.4117,0.4104,0.4107,0.4073,0.4087,0.4145,0.417,0.4253,0.4319,0.4425,0.4424,0.4598,0.4544,0.4606,0.4653,0.4661,0.4564,0.4538,0.442,0.4442,0.4239,0.475,0.4748,0.4746,0,0.4168,0.4148,0.4122,0.4114,0.4085,0.4064,0.4049,0.4074,0.4066,0.4163,0.418,0.4338,0.4401,0.4533,0.4666,0.4637,0.4841,0.4809,0.4787,0.4783,0.4565,0.4535,0.4388,0.4914,0.4914,0.4913,0.4913,0,0.4158,0.412,0.4107,0.4093,0.4032,0.4029,0.3993,0.4009,0.404,0.4031,0.4165,0.4205,0.4421,0.4562,0.4691,0.4809,0.4879,0.4811,0.4821,0.4565,0.4535,0.4367,0.4392,0.4921,0.4919,0.4918,0.4916,0,0.4133,0.4134,0.4082,0.4044,0.4025,0.3985,0.3941,0.392,0.3957,0.396,0.3994,0.4134,0.4294,0.4512,0.4727,0.48,0.4793,0.4958,0.4665,0.4633,0.4367,0.4408,0.4232,0.4151,0.4963,0.4962,0.496,0,0.4117,0.4099,0.4053,0.4005,0.398,0.3925,0.388,0.3889,0.3866,0.3898,0.3894,0.4043,0.4103,0.4412,0.4597,0.4827,0.4698,0.4668,0.4533,0.4319,0.4374,0.4218,0.4154,0.4287,0.428,0.4275,0.4271,0,0.4044,0.4043,0.4001,0.3927,0.3866,0.3799,0.3746,0.3721,0.3715,0.3706,0.3703,0.375,0.3984,0.4044,0.4324,0.4452,0.4381,0.4558,0.4392,0.3883,0.365,0.3585,0.4236,0.4222,0.4226,0.423,0.4233,0.4235,0.3961,0.3919,0.3869,0.3779,0.3726,0.3639,0.3533,0.35,0.3428,0.3328,0.3479,0.3407,0.3521,0.384,0.393,0.3874,0.4061,0.3765,0.3862,0.3742,0.3534,0.4094,0.4038,0.4042,0.4045,0.4048,0.405,0,0.3781,0.3753,0.3702,0.357,0.3463,0.3485,0.3385,0.3241,0.3098,0.3082,0.3037,0.2976,0.2976,0.3077,0.3192,0.3159,0.3049,0.3128,0.2814,0.282,0.3333,0.3161,0.2837,0.2837,0.2837,0.2837,0.2837,0.2838,0.3668,0.3549,0.3533,0.3306,0.3233,0.3007,0.2921,0.2772,0.2693,0.2491,0.238,0.2418,0.257,0.2627,0.2539,0.2534,0.2399,0.2305,0.2456,0.2759,0.2822,0.2881,0.2709,0.2297,0.2296,0.1648,0.1644,0.1641]},{"header":{"parameterUnit":"m.s-1","parameterCategory":2,"la1":30.2991,"la2":30.254,"lo1":-89.0895,"lo2":-89.0444,"dy":0.0017,"dx":0.0017,"nx":28,"ny":28,"refTime":"2023-07-20T21:00:00:Z","depth":"0","parameterNumber":3,"parameterNumberName":"V-component_of_CURRENTS"},"data":[0,0,0,0,0,0,0,0,0,0,0,0,0,0,0,0,0,0,0,0,0,0,0,0,0,0,0,0,0,0,0,0,0,0,0,0,0,0,0,0,0,0,0,0,0,0,0,0,0,0,0,0,0,0,0,0,0,0,0.0835,0.0836,0,0.0882,0.0883,0.0884,0.0882,0.0881,0.088,0.0879,0.0927,0.0929,0.0931,0,0,0,0,0,0,0,0,0,0,0,0,0,0.0797,0.0798,0.0835,0.0836,0.0836,0.0882,0.0883,0.0884,0.0882,0.0881,0.088,0.0878,0.0926,0.0929,0.0932,0,0,0,0,0,0,0,0,0,0,0,0,0,0.083,0.0799,0.0835,0.0837,0.0837,0.0881,0.0883,0.0884,0.0883,0.0881,0.0879,0.0878,0.0925,0.0929,0.0932,0.0986,0,0,0.0942,0.0944,0,0,0,0,0,0,0,0,0.0829,0.0832,0.0836,0.0837,0.0837,0.087,0.0887,0.0917,0.0883,0.087,0.0879,0.0877,0.0906,0.0911,0.093,0.0988,0.099,0.0943,0.0945,0.0946,0.0947,0,0,0,0,0,0,0,0.0826,0.0831,0.0859,0.0837,0.0837,0.0853,0.0856,0.0893,0.0901,0.0871,0.087,0.0868,0.0907,0.0927,0.0931,0.0991,0.0943,0.0946,0.0948,0.0949,0.109,0.1091,0,0,0,0,0,0,0.081,0.0828,0.0857,0.086,0.0823,0.0854,0.0858,0.0865,0.09,0.0903,0.0869,0.0868,0.0922,0.0927,0.0933,0.1012,0.0946,0.0949,0.0951,0.1088,0.109,0.1092,0,0,0,0,0,0,0.0809,0.0813,0.0855,0.084,0.0846,0.0856,0.0865,0.0867,0.088,0.0898,0.0901,0.0879,0.0921,0.0928,0.0989,0.1013,0.0951,0.0954,0.1086,0.1089,0.1091,0.1162,0,0,0,0,0,0,0.0808,0.0813,0.0822,0.084,0.0846,0.0894,0.0866,0.0869,0.0879,0.0878,0.0907,0.091,0.092,0.0984,0.0992,0.1017,0.0957,0.1084,0.1087,0.109,0.1157,0.1166,0.1174,0,0,0,0,0,0.0807,0.083,0.0823,0.0826,0.0856,0.0895,0.0902,0.0905,0.0881,0.0907,0.0931,0.0909,0.1008,0.0989,0.0998,0.1024,0.1082,0.1086,0.109,0.1153,0.1164,0.1174,0,0,0,0,0,0,0.0824,0.0832,0.0824,0.0849,0.0872,0.0893,0.0912,0.0908,0.0947,0.0939,0.0949,0.0957,0.1015,0.1015,0.0993,0.1072,0.1034,0.104,0.1079,0.109,0.1098,0.1105,0.096,0,0,0,0,0,0.0829,0.0851,0.0858,0.0885,0.0888,0.0898,0.0913,0.0914,0.0942,0.0956,0.0986,0.1009,0.1042,0.106,0.1095,0.115,0.1119,0.1166,0.1174,0.1181,0.1193,0.115,0.1154,0.1104,0.1104,0.1104,0,0,0.0847,0.0852,0.0866,0.089,0.0902,0.0935,0.0905,0.093,0.097,0.0957,0.1035,0.1049,0.1064,0.1128,0.1151,0.1128,0.1186,0.1186,0.1192,0.12,0.1154,0.1158,0.1162,0.1107,0.1106,0.1106,0,0,0.0885,0.089,0.0912,0.0936,0.0949,0.0964,0.0968,0.0999,0.102,0.1092,0.1086,0.1118,0.1185,0.12,0.1211,0.1286,0.1234,0.1287,0.1336,0.1294,0.1297,0.13,0.1288,0.1288,0.1287,0.1287,0.1287,0,0.0902,0.0926,0.093,0.0957,0.0979,0.0977,0.1009,0.1048,0.1104,0.1134,0.1125,0.1212,0.1218,0.1275,0.13,0.1304,0.1278,0.1296,0.1303,0.1304,0.1305,0.1292,0.1292,0.1291,0.129,0.129,0.129,0,0.0954,0.0974,0.0992,0.1026,0.106,0.109,0.1125,0.1175,0.1194,0.1226,0.1296,0.1317,0.1359,0.1362,0.1359,0.1381,0.1361,0.1319,0.1272,0.1314,0.1299,0.1297,0.1296,0.1295,0.1294,0.1293,0,0,0.097,0.1017,0.1022,0.104,0.1091,0.1122,0.12,0.1262,0.1307,0.1364,0.1427,0.1473,0.1468,0.1479,0.1469,0.1438,0.1428,0.1388,0.1384,0.137,0.1354,0.1358,0.1356,0.1374,0.1374,0.1374,0.1347,0,0.0999,0.1056,0.1079,0.1145,0.1168,0.1208,0.1281,0.1344,0.1399,0.1474,0.1486,0.154,0.1516,0.1527,0.1502,0.1458,0.1424,0.144,0.1322,0.132,0.131,0.1354,0.1323,0.1297,0.1345,0.1345,0.1344,0,0.1034,0.1055,0.1117,0.1181,0.1196,0.1247,0.1345,0.1409,0.1506,0.1547,0.1602,0.1622,0.1646,0.1583,0.1532,0.1542,0.1457,0.1401,0.1397,0.1374,0.132,0.1259,0.1292,0.113,0.1341,0.1342,0.1342,0,0.1029,0.1089,0.1135,0.116,0.1233,0.1275,0.1325,0.1426,0.1486,0.1587,0.1631,0.1676,0.1685,0.1612,0.1548,0.1524,0.1465,0.1405,0.1329,0.1329,0.1268,0.1263,0.1122,0.1322,0.1322,0.1322,0.1322,0,0.1055,0.1078,0.1131,0.1151,0.121,0.1264,0.1345,0.1416,0.151,0.1582,0.1651,0.1705,0.168,0.1667,0.1578,0.1487,0.1485,0.1357,0.1322,0.1297,0.1295,0.1123,0.1103,0.1321,0.1321,0.1321,0.1321,0,0.1044,0.1081,0.1118,0.1181,0.1206,0.1246,0.1346,0.1411,0.149,0.1584,0.1615,0.1721,0.1709,0.1684,0.1582,0.1519,0.1378,0.1371,0.1375,0.1341,0.1121,0.111,0.1057,0.106,0.1289,0.1289,0.1289,0,0.105,0.1066,0.113,0.1158,0.1183,0.1244,0.1301,0.1395,0.1463,0.1587,0.1631,0.1679,0.1722,0.1647,0.1552,0.144,0.1344,0.1324,0.1261,0.1123,0.1083,0.1097,0.1106,0.1214,0.1213,0.1213,0.1212,0,0.1026,0.1048,0.1077,0.1145,0.1197,0.127,0.1347,0.1397,0.1503,0.1578,0.1667,0.1707,0.1667,0.1584,0.1477,0.1395,0.1281,0.1307,0.1139,0.1012,0.1043,0.1024,0.1238,0.1207,0.1208,0.1208,0.1208,0.1209,0.0999,0.1015,0.1066,0.1132,0.1202,0.1293,0.1341,0.1428,0.1523,0.163,0.1668,0.1718,0.158,0.1445,0.1333,0.1103,0.1198,0.0993,0.0993,0.1019,0.1018,0.1255,0.1198,0.1198,0.1198,0.1199,0.1199,0,0.0962,0.0993,0.1057,0.1135,0.1211,0.1265,0.1374,0.1418,0.1508,0.1619,0.1681,0.1631,0.1409,0.1219,0.0933,0.0788,0.0788,0.0714,0.0676,0.0704,0.0851,0.0835,0.0726,0.0727,0.0727,0.0727,0.0727,0.0727,0.0939,0.0971,0.1017,0.1119,0.1186,0.1263,0.1319,0.14,0.1485,0.1598,0.1648,0.1709,0.1617,0.0919,0.0518,0.0457,0.0391,0.0414,0.0411,0.0413,0.0436,0.0458,0.0429,0.0238,0.0237,0.025,0.025,0.0249]}],[{"header":{"parameterUnit":"m.s-1","parameterCategory":2,"la1":30.2991,"la2":30.254,"lo1":-89.0895,"lo2":-89.0444,"dy":0.0017,"dx":0.0017,"nx":28,"ny":28,"refTime":"2023-07-20T21:00:00:Z","depth":"2","parameterNumber":2,"parameterNumberName":"U-component_of_CURRENTS"},"data":[0,0,0,0,0,0,0,0,0,0,0,0,0,0,0,0,0,0,0,0,0,0,0,0,0,0,0,0,0,0,0,0,0,0,0,0,0,0,0,0,0,0,0,0,0,0,0,0,0,0,0,0,0,0,0,0,0,0,0.3019,0.3018,0,0.2906,0.2904,0.2903,0.2891,0.2892,0.2894,0.2895,0.3262,0.3271,0.3279,0,0,0,0,0,0,0,0,0,0,0,0,0,0.3169,0.3166,0.3019,0.3018,0.3016,0.2906,0.2904,0.2902,0.2891,0.2893,0.2894,0.2896,0.326,0.327,0.328,0,0,0,0,0,0,0,0,0,0,0,0,0,0.3082,0.3165,0.3019,0.3,0.2997,0.2906,0.2904,0.2902,0.289,0.2893,0.2895,0.2897,0.3256,0.3269,0.3281,0.3316,0,0,0.332,0.3325,0,0,0,0,0,0,0,0,0.3087,0.3076,0.3004,0.3001,0.2998,0.2917,0.3091,0.3065,0.289,0.2928,0.2895,0.2898,0.3192,0.321,0.3173,0.3333,0.3349,0.3321,0.3329,0.3334,0.3338,0,0,0,0,0,0,0,0.3093,0.308,0.2971,0.3002,0.2999,0.2978,0.2968,0.3084,0.3056,0.2925,0.2924,0.2916,0.3194,0.316,0.3183,0.3354,0.3321,0.3332,0.334,0.3345,0.3633,0.3633,0,0,0,0,0,0,0.3113,0.3086,0.2975,0.2968,0.3052,0.2974,0.2963,0.2938,0.3044,0.3059,0.2914,0.2916,0.3137,0.3168,0.3197,0.3424,0.3334,0.3346,0.3353,0.3632,0.3633,0.3633,0,0,0,0,0,0,0.3116,0.3103,0.2979,0.3028,0.3011,0.297,0.2942,0.2935,0.2915,0.3031,0.3055,0.2903,0.314,0.3179,0.3338,0.3433,0.3351,0.3363,0.3632,0.3633,0.3633,0.3768,0,0,0,0,0,0,0.312,0.3104,0.3086,0.3029,0.3009,0.2991,0.294,0.2932,0.2907,0.2908,0.3031,0.3064,0.3145,0.3318,0.335,0.3449,0.3373,0.3632,0.3632,0.3633,0.3764,0.3773,0.3781,0,0,0,0,0,0.3126,0.3107,0.3085,0.3071,0.2987,0.2993,0.2984,0.2957,0.2905,0.2936,0.3,0.3061,0.334,0.333,0.3367,0.3472,0.3632,0.3632,0.3633,0.376,0.3771,0.3781,0,0,0,0,0,0,0.3131,0.3102,0.3078,0.304,0.3045,0.2995,0.3007,0.2954,0.3003,0.3003,0.3092,0.3135,0.3302,0.3337,0.3322,0.3535,0.3484,0.3492,0.3568,0.358,0.3588,0.3495,0.3383,0,0,0,0,0,0.3127,0.3149,0.3098,0.3092,0.309,0.3037,0.3022,0.2992,0.3022,0.3036,0.3141,0.3221,0.3318,0.3411,0.3505,0.3647,0.3592,0.3717,0.3725,0.3733,0.3671,0.3692,0.3698,0.3633,0.3633,0.3633,0,0,0.3141,0.3124,0.3137,0.3103,0.3097,0.3096,0.3037,0.303,0.3032,0.3084,0.3187,0.3276,0.3353,0.3511,0.3587,0.3573,0.3718,0.3734,0.3741,0.3673,0.3693,0.37,0.3705,0.3633,0.3633,0.3633,0,0,0.3161,0.3158,0.3159,0.3175,0.3158,0.3146,0.3147,0.3126,0.3133,0.3221,0.3246,0.3349,0.3543,0.3596,0.3642,0.3732,0.3755,0.3805,0.3815,0.384,0.3846,0.385,0.3779,0.3776,0.3825,0.3825,0.3825,0,0.3159,0.3119,0.3169,0.3165,0.315,0.3174,0.3132,0.3173,0.3216,0.3219,0.3287,0.3454,0.3551,0.3654,0.3702,0.3758,0.3754,0.3797,0.3855,0.3858,0.3861,0.3786,0.3781,0.3832,0.3831,0.383,0.383,0,0.3143,0.3128,0.3151,0.3162,0.3184,0.3174,0.3213,0.3275,0.3301,0.3308,0.343,0.3557,0.3653,0.3719,0.3762,0.3839,0.3822,0.3864,0.384,0.3876,0.3794,0.3787,0.3841,0.3839,0.3837,0.3835,0,0,0.3037,0.3108,0.3096,0.3112,0.3142,0.3168,0.3229,0.324,0.3263,0.3397,0.3399,0.3599,0.367,0.3714,0.381,0.3832,0.3869,0.3881,0.3879,0.3823,0.3884,0.3498,0.3451,0.3982,0.3982,0.3981,0.3818,0,0.2962,0.291,0.2979,0.3011,0.2981,0.3084,0.3156,0.3209,0.3281,0.3356,0.3443,0.3553,0.368,0.3768,0.3823,0.3866,0.3857,0.3902,0.3838,0.3831,0.35,0.3432,0.336,0.3177,0.381,0.3809,0.3808,0,0.2848,0.2822,0.2776,0.2889,0.2895,0.2985,0.3064,0.3141,0.325,0.3305,0.3424,0.3518,0.3626,0.3703,0.3797,0.3855,0.3857,0.3852,0.3849,0.3413,0.3428,0.3241,0.3138,0.3794,0.3795,0.3796,0.3797,0,0.2663,0.2694,0.2653,0.2684,0.2823,0.2889,0.2991,0.3108,0.3162,0.3296,0.3329,0.3488,0.3561,0.3649,0.3689,0.3796,0.3663,0.3815,0.3426,0.3399,0.3262,0.3218,0.3771,0.3771,0.3771,0.3772,0.3772,0,0.2458,0.2466,0.2608,0.2618,0.265,0.2807,0.2897,0.3015,0.3134,0.3211,0.3351,0.3403,0.3562,0.3534,0.3607,0.343,0.3625,0.3334,0.331,0.3296,0.3259,0.3743,0.3742,0.3765,0.3767,0.3768,0.3769,0,0.2199,0.2303,0.2387,0.2551,0.2591,0.266,0.2855,0.2906,0.3072,0.3159,0.3211,0.3316,0.3319,0.3311,0.3333,0.3247,0.3155,0.3021,0.2906,0.2863,0.2908,0.2917,0.2628,0.2613,0.26,0.2589,0.2579,0,0.2032,0.204,0.2301,0.2366,0.2459,0.2565,0.2608,0.2836,0.2918,0.313,0.3144,0.3125,0.3065,0.2806,0.2661,0.2495,0.2765,0.2269,0.2407,0.2773,0.2783,0.2812,0.2837,0.2326,0.2316,0.2307,0.23,0,0.1796,0.1999,0.2054,0.2133,0.227,0.2349,0.2487,0.2522,0.2819,0.2902,0.3006,0.2944,0.2658,0.24,0.2003,0.1944,0.2298,0.2069,0.2533,0.2553,0.2454,0.2475,0.2518,0.2223,0.2231,0.2237,0.2241,0.2244,0.1721,0.1731,0.1903,0.1965,0.208,0.2165,0.2206,0.2351,0.2475,0.2625,0.2738,0.259,0.2395,0.1714,0.1593,0.1462,0.1583,0.1646,0.1692,0.1742,0.1661,0.1537,0.1117,0.1118,0.112,0.112,0.1121,0,0.1611,0.1654,0.1691,0.1874,0.1921,0.2067,0.2135,0.2157,0.2272,0.2331,0.2408,0.2002,0.1681,0.1541,0.1204,0.1001,0.1185,0.1032,0.1429,0.1495,0.1557,0.1491,0.089,0.089,0.089,0.089,0,0,0.1617,0.1621,0.1638,0.1739,0.1841,0.1917,0.1977,0.1958,0.1953,0.1843,0.1766,0.1718,0.1523,0.1273,0.1142,0.1044,0.1309,0.0982,0.1159,0.1703,0.1769,0.1862,0.1817,0,0,0,0,0]},{"header":{"parameterUnit":"m.s-1","parameterCategory":2,"la1":30.2991,"la2":30.254,"lo1":-89.0895,"lo2":-89.0444,"dy":0.0017,"dx":0.0017,"nx":28,"ny":28,"refTime":"2023-07-20T21:00:00:Z","depth":"2","parameterNumber":3,"parameterNumberName":"V-component_of_CURRENTS"},"data":[0,0,0,0,0,0,0,0,0,0,0,0,0,0,0,0,0,0,0,0,0,0,0,0,0,0,0,0,0,0,0,0,0,0,0,0,0,0,0,0,0,0,0,0,0,0,0,0,0,0,0,0,0,0,0,0,0,0,0.0301,0.0301,0,0.0242,0.024,0.0238,0.0183,0.0184,0.0184,0.0185,0.0364,0.0368,0.0372,0,0,0,0,0,0,0,0,0,0,0,0,0,0.0268,0.0269,0.0301,0.0301,0.0302,0.0242,0.024,0.0237,0.0183,0.0184,0.0185,0.0185,0.0362,0.0367,0.0372,0,0,0,0,0,0,0,0,0,0,0,0,0,0.0239,0.0269,0.0301,0.0279,0.0278,0.0243,0.024,0.0237,0.0183,0.0184,0.0185,0.0186,0.0361,0.0367,0.0373,0.0388,0,0,0.0391,0.0394,0,0,0,0,0,0,0,0,0.0241,0.0238,0.0281,0.0281,0.0279,0.0235,0.0295,0.0305,0.0182,0.0202,0.0185,0.0186,0.0352,0.0359,0.032,0.0396,0.0404,0.0392,0.0396,0.0398,0.04,0,0,0,0,0,0,0,0.0243,0.024,0.0261,0.0282,0.0281,0.024,0.0236,0.0293,0.0264,0.0201,0.02,0.0218,0.0351,0.0313,0.0325,0.0407,0.0392,0.0397,0.0401,0.0403,0.0543,0.0543,0,0,0,0,0,0,0.0285,0.0242,0.0264,0.0261,0.028,0.0241,0.0236,0.0235,0.0258,0.0265,0.0217,0.0216,0.0302,0.0317,0.0331,0.0482,0.0398,0.0404,0.0407,0.0543,0.0543,0.0543,0,0,0,0,0,0,0.0284,0.0287,0.0266,0.0264,0.0261,0.0243,0.0241,0.0234,0.0203,0.0271,0.028,0.0197,0.0304,0.0323,0.0405,0.0485,0.0407,0.0412,0.0543,0.0543,0.0543,0.0703,0,0,0,0,0,0,0.0283,0.0286,0.0285,0.0266,0.0263,0.0276,0.0241,0.0232,0.022,0.0217,0.0258,0.0274,0.0306,0.0395,0.0411,0.0492,0.0417,0.0543,0.0543,0.0543,0.0697,0.0708,0.0717,0,0,0,0,0,0.0282,0.0272,0.0284,0.0287,0.0266,0.0279,0.0271,0.0251,0.0218,0.022,0.0247,0.0273,0.0406,0.0401,0.0419,0.0504,0.0543,0.0543,0.0543,0.0693,0.0706,0.0717,0,0,0,0,0,0,0.0248,0.0267,0.0279,0.0275,0.03,0.0276,0.0266,0.025,0.0255,0.0248,0.0291,0.0312,0.0397,0.0409,0.0402,0.0529,0.0472,0.0475,0.0579,0.0592,0.0601,0.0557,0.0422,0,0,0,0,0,0.025,0.0262,0.0279,0.029,0.0292,0.0276,0.027,0.0261,0.0274,0.027,0.0329,0.0363,0.0403,0.0466,0.0491,0.0592,0.0516,0.0642,0.0652,0.0661,0.0628,0.0571,0.0573,0.0544,0.0544,0.0544,0,0,0.0247,0.0263,0.0269,0.0288,0.0285,0.0305,0.027,0.0268,0.0293,0.03,0.0366,0.0397,0.0422,0.0519,0.0561,0.0559,0.0631,0.0661,0.0671,0.0631,0.0571,0.0574,0.0577,0.0544,0.0544,0.0544,0,0,0.0236,0.0254,0.0247,0.0274,0.0297,0.0313,0.032,0.0328,0.0332,0.0399,0.04,0.0464,0.0559,0.0599,0.0623,0.0692,0.0658,0.0724,0.0797,0.0745,0.0747,0.0748,0.0671,0.0664,0.0768,0.0768,0.0769,0,0.0227,0.0228,0.0252,0.026,0.0288,0.0325,0.0329,0.0352,0.0403,0.0423,0.0441,0.0522,0.0579,0.0656,0.0707,0.0722,0.0673,0.0773,0.0761,0.076,0.0759,0.0678,0.0668,0.0776,0.0775,0.0774,0.0774,0,0.0209,0.0222,0.0225,0.027,0.0305,0.0323,0.0382,0.0437,0.0472,0.0498,0.0567,0.0624,0.0689,0.0729,0.0765,0.081,0.0771,0.0759,0.0742,0.0772,0.0685,0.0672,0.0787,0.0784,0.0782,0.078,0,0,0.0156,0.0197,0.0197,0.0242,0.0305,0.035,0.0414,0.048,0.0538,0.0596,0.0637,0.0737,0.0779,0.08,0.0859,0.0843,0.0837,0.0837,0.0831,0.0777,0.0709,0.0698,0.0681,0.0847,0.0845,0.0844,0.0659,0,0.0132,0.0136,0.0172,0.0253,0.0276,0.0363,0.0448,0.0526,0.0594,0.0673,0.0688,0.0767,0.0808,0.0883,0.0876,0.0857,0.0806,0.0886,0.0667,0.0659,0.0663,0.0667,0.0656,0.0493,0.0646,0.0643,0.0642,0,0.0086,0.0116,0.0139,0.0271,0.0291,0.0374,0.0527,0.0613,0.071,0.0754,0.0811,0.0834,0.0893,0.0879,0.082,0.0885,0.0799,0.073,0.0722,0.0635,0.0624,0.048,0.0461,0.0618,0.062,0.0622,0.0623,0,0.0047,0.0103,0.0137,0.0178,0.0329,0.0395,0.0503,0.0631,0.0718,0.0821,0.0876,0.0902,0.0948,0.0847,0.0785,0.082,0.0619,0.0646,0.0503,0.05,0.0399,0.0391,0.0484,0.0484,0.0485,0.0485,0.0486,0,-0.0004,0.0046,0.014,0.0193,0.0295,0.0414,0.0555,0.066,0.0792,0.0912,0.0954,0.1009,0.0943,0.0853,0.0752,0.0604,0.0599,0.0481,0.045,0.0456,0.0455,0.0486,0.0489,0.0478,0.048,0.0481,0.0482,0,-0.0072,-0.002,0.0089,0.0245,0.0286,0.0391,0.0582,0.0691,0.0842,0.0983,0.1025,0.108,0.1033,0.0877,0.0695,0.0587,0.0413,0.0317,0.0322,0.0296,0.0329,0.0342,0.0181,0.0179,0.0178,0.0176,0.0175,0,-0.0116,-0.0075,0.0106,0.0177,0.0251,0.0397,0.0494,0.0684,0.0812,0.1038,0.1094,0.1088,0.1097,0.081,0.0601,0.0349,0.0335,0.0143,0.0208,0.0311,0.0297,0.0313,0.0327,0.0128,0.0126,0.0125,0.0124,0,-0.0137,-0.005,0.003,0.0151,0.0272,0.0405,0.0573,0.0665,0.0934,0.1071,0.123,0.1241,0.1035,0.0802,0.0459,0.0307,0.0213,0.0115,0.0186,0.0234,0.0254,0.0243,0.026,0.0114,0.0115,0.0115,0.0116,0.0116,-0.0116,-0.0085,0.0045,0.0159,0.0288,0.0456,0.0586,0.0763,0.0983,0.1242,0.1254,0.1275,0.0995,0.0578,0.0348,0.0133,0.0154,0.0045,0.0051,0.0057,0.0112,0.0131,-0.0025,-0.0025,-0.0025,-0.0024,-0.0024,0,-0.008,-0.0045,0.0044,0.0238,0.0392,0.0472,0.068,0.0829,0.1085,0.1215,0.1357,0.1083,0.0822,0.0554,0.0218,0.001,0.0031,-0.0036,0.0011,0.0019,0.0028,0.0085,-0.0062,-0.0062,-0.0061,-0.0061,0,0,-0.0032,0.0042,0.0075,0.0328,0.0466,0.0696,0.0837,0.1003,0.1122,0.124,0.124,0.1171,0.0813,0.0546,0.0279,0.0118,0.014,0.0105,0.0142,0.0237,0.0249,0.0064,0.0161,0,0,0,0,0]}],[{"header":{"parameterUnit":"m.s-1","parameterCategory":2,"la1":30.2991,"la2":30.254,"lo1":-89.0895,"lo2":-89.0444,"dy":0.0017,"dx":0.0017,"nx":28,"ny":28,"refTime":"2023-07-20T21:00:00:Z","depth":"4","parameterNumber":2,"parameterNumberName":"U-component_of_CURRENTS"},"data":[0,0,0,0,0,0,0,0,0,0,0,0,0,0,0,0,0,0,0,0,0,0,0,0,0,0,0,0,0,0,0,0,0,0,0,0,0,0,0,0,0,0,0,0,0,0,0,0,0,0,0,0,0,0,0,0,0,0,-0.0508,-0.0509,0,-0.0533,-0.0533,-0.0533,-0.0416,-0.0413,-0.041,-0.0408,-0.0428,-0.0431,-0.0434,0,0,0,0,0,0,0,0,0,0,0,0,0,-0.0507,-0.0506,-0.0508,-0.0509,-0.051,-0.0533,-0.0533,-0.0532,-0.0416,-0.0413,-0.0409,-0.0406,-0.0427,-0.0431,-0.0434,0,0,0,0,0,0,0,0,0,0,0,0,0,-0.051,-0.0506,-0.0508,-0.046,-0.0456,-0.0533,-0.0533,-0.0532,-0.0417,-0.0413,-0.0409,-0.0405,-0.0426,-0.043,-0.0435,-0.0546,0,0,-0.0449,-0.0451,0,0,0,0,0,0,0,0,-0.051,-0.0509,-0.0466,-0.0463,-0.0459,-0.0473,-0.054,-0.0539,-0.0418,-0.0424,-0.0407,-0.0403,-0.0451,-0.0453,-0.0457,-0.0547,-0.0548,-0.045,-0.0452,-0.0454,-0.0456,0,0,0,0,0,0,0,-0.051,-0.0509,-0.0511,-0.0467,-0.0464,-0.0488,-0.0482,-0.054,-0.0455,-0.0423,-0.0417,-0.0432,-0.0447,-0.0452,-0.0457,-0.0549,-0.0449,-0.0454,-0.0457,-0.0458,-0.0615,-0.0617,0,0,0,0,0,0,-0.0518,-0.0508,-0.051,-0.0512,-0.0483,-0.0492,-0.0484,-0.0467,-0.0454,-0.045,-0.0436,-0.0427,-0.0447,-0.0451,-0.0457,-0.0462,-0.0454,-0.0459,-0.0461,-0.0614,-0.0616,-0.0617,0,0,0,0,0,0,-0.0517,-0.0516,-0.0509,-0.0518,-0.052,-0.0496,-0.0478,-0.047,-0.0425,-0.0465,-0.0458,-0.0393,-0.0443,-0.045,-0.0481,-0.0466,-0.0461,-0.0465,-0.0613,-0.0615,-0.0617,-0.0553,0,0,0,0,0,0,-0.0516,-0.0515,-0.0541,-0.0518,-0.052,-0.052,-0.0482,-0.0474,-0.0448,-0.0434,-0.0429,-0.0428,-0.0441,-0.0474,-0.0486,-0.0472,-0.0469,-0.0611,-0.0613,-0.0616,-0.0554,-0.0553,-0.0552,0,0,0,0,0,-0.0516,-0.0534,-0.054,-0.0544,-0.0541,-0.0521,-0.0522,-0.0489,-0.0449,-0.0431,-0.0437,-0.0426,-0.0498,-0.048,-0.0493,-0.048,-0.061,-0.0613,-0.0616,-0.0554,-0.0553,-0.0553,0,0,0,0,0,0,-0.0516,-0.0525,-0.053,-0.0543,-0.0529,-0.0502,-0.0517,-0.0476,-0.0467,-0.0462,-0.0458,-0.0461,-0.0477,-0.0509,-0.0489,-0.0538,-0.0548,-0.0554,-0.0497,-0.0497,-0.0496,-0.0444,-0.0473,0,0,0,0,0,-0.0545,-0.057,-0.0558,-0.0568,-0.0569,-0.054,-0.0541,-0.0506,-0.0491,-0.0477,-0.0471,-0.0491,-0.0516,-0.0524,-0.056,-0.0604,-0.0605,-0.0604,-0.0603,-0.0602,-0.0573,-0.0576,-0.0571,-0.0627,-0.0627,-0.0627,0,0,-0.0537,-0.0563,-0.0566,-0.0576,-0.0571,-0.0555,-0.0524,-0.0509,-0.0471,-0.0495,-0.046,-0.0493,-0.053,-0.0559,-0.0569,-0.0571,-0.0593,-0.0606,-0.0604,-0.0575,-0.0578,-0.0572,-0.0566,-0.063,-0.0629,-0.0629,0,0,-0.0535,-0.0564,-0.0582,-0.0583,-0.0598,-0.0576,-0.0556,-0.0521,-0.0483,-0.0484,-0.0483,-0.05,-0.0542,-0.0552,-0.0566,-0.0596,-0.0591,-0.0613,-0.0562,-0.0566,-0.0559,-0.0554,-0.056,-0.0555,-0.0609,-0.0609,-0.0609,0,-0.0538,-0.0553,-0.0578,-0.0596,-0.0594,-0.0566,-0.0544,-0.0517,-0.0487,-0.0466,-0.0462,-0.0499,-0.053,-0.0541,-0.0541,-0.0586,-0.0589,-0.0553,-0.0558,-0.0553,-0.0548,-0.0556,-0.0551,-0.0607,-0.0607,-0.0607,-0.0608,0,-0.0525,-0.0559,-0.0564,-0.0577,-0.0571,-0.0555,-0.0523,-0.0498,-0.0461,-0.0428,-0.0421,-0.0471,-0.0477,-0.0502,-0.0524,-0.0513,-0.0527,-0.0554,-0.0544,-0.0537,-0.0548,-0.0544,-0.0603,-0.0604,-0.0605,-0.0605,0,0,-0.0477,-0.0542,-0.0551,-0.0563,-0.0562,-0.054,-0.0502,-0.0449,-0.0403,-0.0394,-0.0337,-0.0386,-0.0389,-0.0408,-0.0447,-0.045,-0.0431,-0.0475,-0.0477,-0.0452,-0.0432,-0.04,-0.0393,-0.045,-0.0449,-0.0448,-0.0455,0,-0.0458,-0.0492,-0.0519,-0.051,-0.051,-0.0497,-0.0456,-0.0414,-0.0375,-0.0324,-0.0338,-0.0321,-0.0358,-0.0368,-0.0371,-0.0432,-0.0416,-0.0425,-0.0467,-0.0468,-0.0415,-0.0386,-0.0444,-0.0453,-0.0452,-0.0451,-0.0451,0,-0.044,-0.0474,-0.0476,-0.049,-0.0482,-0.0457,-0.0396,-0.0359,-0.0297,-0.027,-0.0247,-0.0246,-0.0254,-0.0282,-0.0329,-0.0333,-0.0353,-0.039,-0.0392,-0.0371,-0.0428,-0.0463,-0.0445,-0.0445,-0.0446,-0.0446,-0.0446,0,-0.0404,-0.0441,-0.0444,-0.045,-0.045,-0.0427,-0.0393,-0.0337,-0.0299,-0.0227,-0.02,-0.0196,-0.0198,-0.0232,-0.031,-0.0308,-0.036,-0.0378,-0.0358,-0.0358,-0.0411,-0.0417,-0.0358,-0.0358,-0.0358,-0.0358,-0.0358,0,-0.0382,-0.0398,-0.043,-0.0435,-0.0406,-0.0403,-0.0349,-0.0311,-0.0256,-0.0215,-0.0169,-0.0168,-0.0178,-0.0215,-0.028,-0.032,-0.034,-0.0321,-0.0344,-0.0392,-0.0395,-0.0409,-0.0415,-0.0358,-0.0358,-0.0358,-0.0358,0,-0.0369,-0.0393,-0.0415,-0.0417,-0.0402,-0.0383,-0.0332,-0.029,-0.0241,-0.019,-0.0165,-0.0133,-0.0167,-0.02,-0.0263,-0.0276,-0.0336,-0.0337,-0.0386,-0.0418,-0.0328,-0.0332,-0.0279,-0.0278,-0.0277,-0.0276,-0.0275,0,-0.037,-0.0377,-0.0406,-0.0396,-0.0399,-0.0364,-0.0327,-0.028,-0.0252,-0.0206,-0.0194,-0.0164,-0.0153,-0.0198,-0.0262,-0.0317,-0.032,-0.0322,-0.0289,-0.0285,-0.0314,-0.0319,-0.0323,-0.0273,-0.0273,-0.0272,-0.0272,0,-0.0364,-0.0387,-0.0408,-0.0398,-0.0372,-0.0334,-0.0292,-0.0264,-0.022,-0.0199,-0.0159,-0.0133,-0.014,-0.0173,-0.0187,-0.026,-0.0312,-0.031,-0.0311,-0.028,-0.0277,-0.0308,-0.0314,-0.0268,-0.0269,-0.0269,-0.0269,0,-0.0364,-0.0381,-0.0404,-0.0395,-0.036,-0.0298,-0.0273,-0.0226,-0.0188,-0.0136,-0.0161,-0.0145,-0.0145,-0.015,-0.0232,-0.0226,-0.0204,-0.0185,-0.0192,-0.0197,-0.0171,-0.0155,-0.0101,0,0,0,0,0,-0.0347,-0.0365,-0.0372,-0.0343,-0.0311,-0.0292,-0.0248,-0.0229,-0.0213,-0.0155,-0.0131,-0.0139,-0.0125,-0.0165,-0.014,-0.023,-0.0237,-0.0204,-0.0226,-0.0246,-0.025,-0.0229,0,0,0,0,0,0,-0.0334,-0.0354,-0.0384,-0.0318,-0.028,-0.0222,-0.0199,-0.0179,-0.015,-0.0135,-0.0136,-0.0124,-0.0141,-0.0126,-0.0136,-0.0145,-0.0151,-0.0216,-0.0215,-0.0243,-0.0247,-0.0251,-0.0231,0,0,0,0,0]},{"header":{"parameterUnit":"m.s-1","parameterCategory":2,"la1":30.2991,"la2":30.254,"lo1":-89.0895,"lo2":-89.0444,"dy":0.0017,"dx":0.0017,"nx":28,"ny":28,"refTime":"2023-07-20T21:00:00:Z","depth":"4","parameterNumber":3,"parameterNumberName":"V-component_of_CURRENTS"},"data":[0,0,0,0,0,0,0,0,0,0,0,0,0,0,0,0,0,0,0,0,0,0,0,0,0,0,0,0,0,0,0,0,0,0,0,0,0,0,0,0,0,0,0,0,0,0,0,0,0,0,0,0,0,0,0,0,0,0,0.022,0.022,0,0.0195,0.0194,0.0193,0.0039,0.0036,0.0033,0.003,-0.0133,-0.0134,-0.0135,0,0,0,0,0,0,0,0,0,0,0,0,0,0.0181,0.0182,0.022,0.022,0.022,0.0195,0.0194,0.0193,0.0039,0.0035,0.0032,0.0028,-0.0132,-0.0134,-0.0135,0,0,0,0,0,0,0,0,0,0,0,0,0,0.0175,0.0182,0.022,0.0146,0.0139,0.0195,0.0194,0.0193,0.004,0.0035,0.0031,0.0026,-0.0131,-0.0134,-0.0136,-0.0056,0,0,-0.0142,-0.0143,0,0,0,0,0,0,0,0,0.0175,0.0175,0.0156,0.0151,0.0144,0.0121,0.0121,0.0105,0.0041,0.0071,0.003,0.0024,-0.0052,-0.0061,-0.0064,-0.0063,-0.007,-0.0142,-0.0144,-0.0145,-0.0145,0,0,0,0,0,0,0,0.0176,0.0176,0.0203,0.0157,0.015,0.013,0.0123,0.0118,0.0028,0.0068,0.0058,0.0068,-0.0059,-0.0061,-0.0069,-0.0073,-0.0142,-0.0144,-0.0146,-0.0146,-0.0224,-0.0225,0,0,0,0,0,0,0.0196,0.0177,0.0204,0.0203,0.0156,0.0135,0.0127,0.0128,0.003,0.0014,0.0072,0.0061,-0.0055,-0.0066,-0.0075,-0.0166,-0.0145,-0.0147,-0.0148,-0.0223,-0.0224,-0.0225,0,0,0,0,0,0,0.0195,0.0198,0.0205,0.0195,0.0195,0.0141,0.0143,0.013,0.0071,0.0036,0.0015,0.0021,-0.0059,-0.0072,-0.0118,-0.0167,-0.0148,-0.015,-0.0222,-0.0224,-0.0225,-0.0232,0,0,0,0,0,0,0.0194,0.0198,0.0189,0.0196,0.0196,0.0207,0.0148,0.0133,0.0092,0.0075,-0.0012,-0.0029,-0.0064,-0.0115,-0.012,-0.017,-0.0151,-0.0221,-0.0223,-0.0224,-0.0231,-0.0233,-0.0235,0,0,0,0,0,0.0192,0.0197,0.0188,0.0191,0.0191,0.0208,0.0204,0.0147,0.0093,0.0074,0.0014,-0.0029,-0.013,-0.0115,-0.0122,-0.0174,-0.0221,-0.0223,-0.0224,-0.023,-0.0233,-0.0235,0,0,0,0,0,0,0.0176,0.0184,0.0173,0.0179,0.0183,0.0183,0.0167,0.0135,0.0078,0.0045,-0.0013,-0.0032,-0.01,-0.0117,-0.01,-0.0201,-0.0192,-0.0195,-0.0194,-0.0197,-0.0199,-0.0205,-0.0153,0,0,0,0,0,0.0179,0.0183,0.0191,0.0202,0.0197,0.0178,0.0171,0.0139,0.0108,0.0073,0.0011,-0.0051,-0.0096,-0.0134,-0.017,-0.0198,-0.0176,-0.0244,-0.0246,-0.0248,-0.0257,-0.0209,-0.0207,-0.0231,-0.0231,-0.0231,0,0,0.0186,0.019,0.0194,0.0199,0.0193,0.0183,0.0157,0.0145,0.0114,0.0072,-0.0014,-0.0056,-0.0103,-0.0157,-0.0191,-0.0189,-0.0232,-0.025,-0.0252,-0.026,-0.0211,-0.0208,-0.0206,-0.0232,-0.0232,-0.0232,0,0,0.0212,0.0196,0.0202,0.0194,0.0189,0.0178,0.0165,0.0138,0.0089,0.0047,-0.0011,-0.0068,-0.0142,-0.0183,-0.0211,-0.0236,-0.0241,-0.0275,-0.0297,-0.025,-0.0247,-0.0244,-0.0217,-0.0211,-0.028,-0.028,-0.028,0,0.0224,0.022,0.021,0.0203,0.0189,0.0165,0.0153,0.0124,0.0077,0.0045,0.0004,-0.0102,-0.0152,-0.0203,-0.0242,-0.0244,-0.0222,-0.0282,-0.025,-0.0247,-0.0244,-0.0216,-0.021,-0.0281,-0.0281,-0.0281,-0.0281,0,0.0238,0.0227,0.023,0.0204,0.0185,0.0181,0.0143,0.0098,0.0035,0.0005,-0.0072,-0.0117,-0.019,-0.022,-0.0253,-0.0276,-0.0269,-0.025,-0.0237,-0.0241,-0.0213,-0.0206,-0.0282,-0.0282,-0.0281,-0.0281,0,0,0.0294,0.0253,0.0254,0.0219,0.0178,0.0164,0.0113,0.0071,0.002,-0.0036,-0.0093,-0.0178,-0.0216,-0.025,-0.0287,-0.0267,-0.0243,-0.027,-0.0267,-0.0233,-0.0152,-0.02,-0.0197,-0.0212,-0.0211,-0.0211,-0.0142,0,0.0312,0.0307,0.027,0.0228,0.0201,0.0144,0.0096,0.0044,-0.0013,-0.0076,-0.0115,-0.0185,-0.0221,-0.0271,-0.0257,-0.0242,-0.0227,-0.0265,-0.0163,-0.016,-0.0193,-0.0191,-0.0207,-0.0137,-0.0135,-0.0134,-0.0133,0,0.0316,0.0312,0.0295,0.0208,0.0189,0.0146,0.005,0.0007,-0.0064,-0.011,-0.0165,-0.0207,-0.0231,-0.0248,-0.02,-0.0223,-0.021,-0.0181,-0.0176,-0.0216,-0.0196,-0.0132,-0.0121,-0.0122,-0.0123,-0.0123,-0.0124,0,0.0334,0.0302,0.0287,0.0263,0.0184,0.0133,0.0072,-0.0011,-0.005,-0.0134,-0.0165,-0.0194,-0.0221,-0.0175,-0.0161,-0.018,-0.0074,-0.0078,-0.0101,-0.0103,-0.0075,-0.0079,-0.0038,-0.0038,-0.0038,-0.0038,-0.0039,0,0.033,0.0304,0.0287,0.0267,0.0202,0.0131,0.005,-0.0019,-0.008,-0.012,-0.0187,-0.0216,-0.0204,-0.0163,-0.0134,-0.0094,-0.0044,-0.0111,-0.0089,-0.0082,-0.0088,-0.007,-0.0075,-0.0036,-0.0036,-0.0037,-0.0037,0,0.0302,0.0316,0.0283,0.0233,0.0201,0.014,0.0037,-0.0011,-0.0071,-0.0118,-0.0143,-0.0207,-0.0192,-0.0147,-0.0081,-0.0072,-0.0011,-0.0011,-0.0011,0.0012,-0.0085,-0.0091,-0.0041,-0.0043,-0.0044,-0.0044,-0.0045,0,0.0277,0.0273,0.0263,0.0241,0.02,0.012,0.0065,-0.001,-0.0045,-0.011,-0.0123,-0.0156,-0.0194,-0.0112,-0.0089,-0.0017,-0.0029,0.0008,-0.0064,-0.0102,-0.0085,-0.0089,-0.0094,-0.0046,-0.0047,-0.0047,-0.0047,0,0.0214,0.0237,0.022,0.0212,0.0162,0.0105,0.0025,0.0003,-0.0066,-0.0071,-0.0124,-0.0155,-0.0158,-0.0149,-0.0098,-0.0047,-0.0005,-0.0003,-0.0002,-0.0069,-0.0108,-0.009,-0.0094,-0.005,-0.005,-0.005,-0.0049,0,0.0168,0.0152,0.0172,0.0141,0.0126,0.0074,0.0022,-0.0029,-0.0063,-0.0108,-0.0116,-0.015,-0.0158,-0.0165,-0.0098,-0.0072,-0.0102,-0.0092,-0.0088,-0.0084,-0.0135,-0.0193,-0.0144,0,0,0,0,0,0.012,0.0099,0.0085,0.0061,0.0069,0.0068,0.0001,-0.0036,-0.006,-0.0089,-0.0107,-0.0116,-0.0136,-0.0154,-0.0142,-0.0143,-0.0099,-0.0129,-0.0085,-0.0069,-0.0065,-0.0125,0,0,0,0,0,0,0.0074,0.0064,0.0072,0.0038,0.0033,0.001,-0.0013,-0.005,-0.0074,-0.0089,-0.0098,-0.0087,-0.01,-0.011,-0.0122,-0.0122,-0.0094,-0.0123,-0.0123,-0.0071,-0.0067,-0.0064,-0.0125,0,0,0,0,0]}]]